{"data":{"norad_id":66724,"intl_designator":"2025-276BL","name":"FLOCK 4H-21","alt_names":[],"object_type":"PAYLOAD","status":"ACTIVE","operator":null,"country":"US","launch_date":"2025-11-28","launch_site_code":"AFWTR","launch_vehicle":null,"mission":null,"orbit_class":"UNKNOWN","rcs_meters":null,"size_class":null,"mass_kg":null,"dimensions":null,"purposes":["earth_obs"],"wikipedia_slug":null,"has_3d_model":false,"image_url":null,"decayed_at":null,"tle_current":{"epoch":"2026-09-20T04:41:41.301024Z","epoch_age_seconds":52091,"freshness":"FRESH","line1":"1 66724U 25276BL  26263.19561691  .00003853  00000+0  17295-3 0  9999","line2":"2 66724  97.4100 335.5240 0001956  13.3580 346.7708 15.21774829 44134","mean_motion":15.21774829,"eccentricity":0.0001956,"inclination_deg":97.41,"raan_deg":335.524,"arg_perigee_deg":13.358,"mean_anomaly_deg":346.7708,"bstar":0.00017295,"rev_number":4413,"period_min":94.626351583582,"perigee_km":499.14164306319,"apogee_km":501.83256081186,"semimajor_km":6878.6241019375,"source":"CELESTRAK","updated_at":"2026-09-20T09:00:34.751484Z"}}}